User: anonymous   Login
Location: Castelbiague
(43.0361°N, 0.9246°E)
Time: 00:05:53
(UTC+00:00)
Language:

IDEFIX/ARIANE 42P - Orbit

View from above orbital plane
View from above orbital plane
View from above satellite
View from above satellite

Ground track
Ground track

The orbit data is extracted from the following two-line orbital elements,

1 27422U 02021B   22226.47567859  .00000110  00000-0  59549-4 0  9995
2 27422  98.4515 170.7394 0013389  67.4558 292.8040 14.29436514 57748
Epoch (UTC): 14 August 2022 11:24:58
Eccentricity: 0.0013389
inclination: 98.4515°
perigee height: 784 km
apogee height: 803 km
right ascension of ascending node: 170.7394°
argument of perigee: 67.4558°
revolutions per day: 14.29436514
mean anomaly at epoch: 292.8040°
orbit number at epoch: 5774

The dashed part of the orbit path shows where the satellite is in the earth's shadow,  

DLR